SCP
0 0 0 0 0 0 0 0 0 0 0 0 0 0 0 0 0 0 0 0 0 0 0 0 0 0 0 0 0 0 0 0 0 0 0 0 0 0 0 0 0 0 0 0
0 0 0 0 0 0 0 0 0 0 0 0 0 0 0 0 0 0 0 0 0 0 0 0 0 0 0 0 0 0 0 0 0 0 0 0 0 0 0 0 0 0 0 0
0 0 0 0 0 0 0 0 0 0 0 0 0 0 0 0 0 0 0 0 0 0 0 0 0 0 0 0 0 0 0 0 0 0 0 0 0 0 0 0 0 0 0 0
-0 0 0 0 0 0 0 0 0 0 0 0 0 -0 -0 0 0 0 0 0 0 0 0 0 0 0 0 0 0 0 0 0 0 0 0 0 0 0 0 0 0 0 0 0
-0 -0 -0 0 0 0 0 0 0 0 0 0 0 0 -0 0 0 0 0 0 0 0 0 0 0 0 0 0 0 0 0 0 0 0 0 0 0 0 0 0 0 0 0 0
-0 0 0 0 0 0 0 0 0 0 0 0 0 0 -0 -0 0 0 0 0 0 0 0 0 0 0 0 0 0 0 0 0 0 0 0 0 0 0 0 0 0 0 0 0
-0 -0 0 0 0 0 0 0 0 0 0 0 0 0 0 0 0 0 0 0 0 0 0 0 0 0 0 0 0 0 0 0 0 0 0 0 0 0 0 0 0 0 0 0
-0 0 -0 0 0 0 0 0 0 0 0 0 0 0 0 0 0 0 0 0 0 0 0 0 0 0 0 0 0 0 0 0 0 0 0 0 0 0 0 0 0 0 0 0
-0 0 -0 0 0 0 0 0 0 0 0 0 0 0 0 0 0 0 0 0 0 0 0 0 0 0 0 0 0 0 0 0 0 0 0 0 0 0 0 0 0 0 0 0
-0 0 0 0 0 0 0 0 0 0 0 0 0 0 0 0 0 0 0 0 0 0 0 0 0 0 0 0 0 0 0 0 0 0 0 0 0 0 0 0 0 0 0 0
0 -0 -0 0 0 0 0 0 0 0 0 0 0 0 0 0 0 0 0 0 0 0 0 0 0 0 0 0 0 0 0 0 0 0 0 0 0 0 0 0 0 0 0 0
0 0 0 -0 0 0 0 0 0 0 0 0 0 0 0 0 0 0 0 0 0 0 0 0 0 0 0 0 0 0 0 0 0 0 0 0 0 0 0 0 0 0 0 0
0 0 0 0 0 0 0 0 0 0 -0 0 0 0 0 0 0 0 0 0 0 0 0 0 0 0 0 0 0 0 0 0 0 0 0 0 0 0 0 0 0 0 0 0
0 0 0 0 0 -0 0 0 0 0 0 0 0 0 0 0 0 0 0 0 0 0 0 0 0 0 0 0 0 0 0 0 0 0 0 0 0 0 0 0 0 0 0 0
0 0 0 0 0 0 0 0 0 0 0 0 -0 0 0 0 0 0 0 0 0 0 0 0 0 0 0 0 0 0 0 0 0 0 0 0 0 0 0 0 0 0 0 0
0 0 -0 0 0 0 0 0 0 0 0 0 0 -0 0 0 0 0 0 0 0 0 0 0 0 0 0 0 0 0 0 0 0 0 0 0 0 0 0 0 0 0 0 0
0 0 0 -0 0 0 0 0 0 0 0 0 0 0 0 0 0 0 0 0 0 0 0 0 0 0 0 0 0 0 0 0 0 0 0 0 0 0 0 0 0 0 0 0
0 0 0 0 -0 0 0 -0 0 0 0 0 0 0 0 0 0 0 0 0 0 0 0 0 0 0 0 0 0 0 0 0 0 0 0 0 0 0 0 0 0 0 0 0
0 0 0 0 -0 -0 0 0 0 0 0 0 0 0 0 0 0 0 0 0 0 0 0 0 0 0 0 0 0 0 0 0 0 0 0 0 0 0 0 0 0 0 0 0
0 0 -0 0 -0 0 -0 -0 -0 -0 0 0 0 0 0 0 0 0 0 0 0 0 0 0 0 0 0 0 0 0 0 0 0 0 0 0 0 0 0 0 0 0 0 0
0 0 0 -0 -0 -0 -0 -0 -0 0 0 0 0 0 0 0 0 0 0 0 0 0 0 0 0 0 0 0 0 0 0 0 0 0 0 0 0 0 0 0 0 0 0 0
-0 -0 -0 -0 0 -0 -0 0 0 0 0 0 0 0 0 0 0 0 0 0 0 0 0 0 0 0 0 0 0 0 0 0 0 0 0 0 0 0 0 0 0 0 0 0
0 -0 -0 -0 -0 -0 -0 -0 0 0 0 0 0 0 0 0 0 0 0 0 0 0 0 0 0 0 0 0 0 0 0 0 0 0 0 0 0 0 0 0 0 0 -0 -0
0 0 -0 -0 0 -0 -0 0 0 0 0 0 0 0 0 0 0 0 0 0 0 0 0 0 0 0 0 0 0 0 0 0 0 0 0 0 0 0 0 -0 -0 -0 -0 -0
0 0 -0 -0 0 -0 -0 0 0 0 0 0 0 -0 -0 0 0 0 0 0 0 0 0 0 0 0 0 0 0 0 0 0 0 0 0 0 0 0 -0 0 -0 -0 -0 -0
0 0 0 -0 0 -0 -0 0 0 -0 0 -0 -0 -0 -0 0 0 0 0 0 -0 -0 -0 -0 -0 -0 -0 -0 -0 0 0 0 -0 -0 0 0 0 0 0 0 0 0 0 0
Wind_Speed_500mb
10 1 11 13 16 13 14 11 16 11 9 8 32 28 35 33 40 33 56 48 41 43 45 52 58 55 52 55 57 60 57 53 49 50 50 48 45 40 40 37 35 35 37 35
8 8 14 12 18 18 28 32 17 18 11 9 8 25 30 30 40 54 60 66 63 61 58 49 55 59 58 55 61 63 65 61 54 51 46 46 41 40 39 39 39 39 37 36
9 11 27 9 17 23 22 28 23 15 18 12 7 19 20 20 43 48 75 67 76 70 68 62 61 62 61 60 58 68 68 67 60 54 47 46 44 47 46 45 42 37 37 36
9 19 17 21 17 9 25 9 20 23 10 8 3 18 34 38 32 36 52 65 61 60 51 46 50 46 58 64 56 61 68 66 57 57 56 52 47 50 47 45 48 47 47 47
13 6 5 15 16 14 16 10 12 23 29 11 11 11 12 18 43 49 42 60 77 71 58 54 38 31 39 61 61 56 60 68 62 57 57 53 50 50 48 46 46 45 48 47
19 3 7 4 4 7 11 12 20 6 16 20 37 17 12 16 35 24 36 65 82 89 75 62 48 35 29 52 63 60 55 58 64 65 61 59 55 50 49 45 43 40 35 36
7 15 13 13 10 13 14 12 8 12 13 25 33 14 45 7 7 10 28 52 77 89 90 74 66 55 38 40 57 62 56 53 55 57 53 54 52 43 40 40 39 39 41 45
5 14 17 16 35 10 19 15 11 16 15 32 11 23 23 12 22 11 8 23 36 59 63 58 52 50 41 36 45 50 55 51 47 45 43 39 32 32 35 33 33 34 35 37
6 13 5 8 10 27 10 19 29 18 5 4 12 50 16 3 4 2 7 7 28 43 56 60 58 56 49 40 39 43 42 33 25 21 17 15 17 23 26 30 34 36 39 42
7 10 10 7 12 22 22 6 13 11 12 9 11 35 29 9 11 6 6 8 23 41 58 58 58 56 55 54 51 48 43 37 32 16 18 28 27 19 17 19 20 23 24 25
12 9 6 7 10 16 13 22 15 7 15 10 3 10 7 21 15 19 14 21 34 44 51 54 53 52 51 50 50 51 48 45 40 40 35 25 18 19 16 17 15 15 18 19
5 8 8 19 11 6 16 13 18 15 12 19 11 18 4 11 9 16 21 32 37 51 54 51 51 54 51 48 44 39 35 33 30 28 23 20 18 15 14 12 10 10 14 16
7 8 8 18 2 4 9 13 24 27 22 37 13 16 14 2 13 27 31 37 45 52 56 52 47 45 44 42 42 38 35 32 25 27 27 26 20 13 7 4 7 11 15 19
3 7 11 13 13 4 8 9 5 15 23 34 24 15 12 15 18 26 38 43 51 58 60 58 54 50 49 48 46 44 43 38 36 30 25 18 14 6 3 5 10 13 17 19
8 11 7 19 28 27 31 29 15 13 18 9 6 37 26 10 15 23 55 59 56 54 55 55 56 53 49 47 45 42 39 34 28 19 15 10 7 2 5 8 12 16 19 22
4 9 5 16 18 23 25 20 23 25 24 19 22 23 10 18 15 22 45 60 61 60 55 54 53 48 45 42 39 35 31 26 20 15 11 8 6 7 9 14 17 20 23 26
6 6 7 10 14 15 15 25 21 8 12 11 17 31 21 13 26 39 52 63 66 62 59 54 48 45 41 37 32 27 23 19 13 10 7 6 6 9 13 17 21 25 30 33
8 3 3 9 8 4 11 6 8 20 30 31 29 18 37 41 47 48 57 65 61 58 54 48 44 39 34 31 25 19 17 12 8 5 3 6 11 16 20 25 29 33 37 41
21 6 7 3 5 15 15 10 9 5 19 21 46 29 30 47 45 25 52 53 56 53 49 44 37 30 27 23 19 15 12 8 3 3 7 11 16 21 26 32 36 39 40 40
8 4 6 4 1 9 7 4 7 5 11 8 10 33 33 52 20 15 52 46 47 42 37 33 28 22 18 15 12 9 6 2 2 7 12 17 21 24 26 28 30 34 38 41
5 4 17 10 8 18 17 14 2 8 9 20 21 44 57 28 11 55 55 50 45 40 34 28 24 20 16 12 8 5 4 5 9 12 14 16 20 23 27 30 33 36 39 41
14 13 8 4 2 16 3 7 4 6 19 3 24 32 40 35 52 64 54 52 47 41 36 29 23 19 15 11 9 9 11 12 12 14 16 21 24 27 28 31 35 38 41 44
6 13 7 17 12 11 10 10 18 18 12 6 36 34 38 44 58 54 53 47 40 33 30 26 21 17 17 18 19 19 17 15 14 16 19 21 22 25 28 31 34 38 43 49
10 14 7 4 13 21 46 43 36 17 13 11 30 27 27 37 42 44 43 40 36 33 30 27 27 28 28 28 27 25 22 18 17 17 17 18 19 22 27 33 39 43 48 52
14 16 11 10 27 33 47 40 25 15 5 10 25 24 21 23 38 39 39 39 39 36 33 32 32 33 32 32 32 31 27 23 19 16 17 19 21 25 31 35 40 46 51 55
26 16 20 15 31 16 9 20 33 29 22 21 28 28 26 24 30 40 39 35 32 31 32 34 33 36 36 36 34 35 32 28 22 22 24 26 28 32 36 40 42 46 49 51
Wind_Direction_500mb
2 9 223 260 227 252 279 306 317 335 272 239 230 232 239 234 228 220 203 208 214 225 237 231 227 230 232 230 228 228 228 228 230 232 234 234 237 241 244 250 257 258 259 261
7 270 242 284 290 237 248 260 281 285 252 242 265 249 242 226 229 227 227 225 228 238 240 234 223 224 230 233 230 228 229 232 230 233 236 242 249 253 257 257 258 258 261 265
205 252 349 300 270 260 249 248 249 261 332 268 358 265 239 237 231 233 236 237 235 228 231 226 218 223 228 230 231 229 228 230 232 234 235 238 246 251 254 255 262 267 270 273
245 262 244 261 265 279 264 257 235 232 269 251 166 269 220 224 229 222 221 228 226 215 213 208 208 220 228 226 228 230 230 232 232 234 236 237 241 250 265 272 276 277 279 281
246 274 253 244 239 218 258 277 295 218 228 329 256 263 245 188 228 225 215 218 227 219 213 209 208 217 223 219 222 226 226 230 230 230 236 240 244 251 260 267 269 274 277 276
246 257 254 231 307 267 251 317 278 290 228 239 228 221 211 199 226 219 210 214 220 226 223 221 222 222 229 220 218 219 220 223 229 234 233 235 240 247 254 263 269 277 281 279
310 235 220 189 256 248 200 172 208 225 196 228 192 210 242 277 287 227 215 208 218 224 227 225 227 226 227 222 217 216 215 217 221 225 230 230 235 239 251 260 267 275 280 281
217 314 170 192 206 198 205 194 239 191 202 245 91 225 235 253 212 241 232 218 219 219 216 208 205 204 208 210 208 209 212 216 220 222 221 221 222 240 252 260 268 272 276 277
204 265 264 223 172 191 195 232 248 278 279 314 184 238 310 118 28 11 344 224 203 199 194 192 193 189 185 192 193 195 193 188 187 187 194 212 240 256 260 269 273 274 273 274
275 284 238 216 184 216 224 238 217 207 230 240 227 230 230 183 199 235 234 163 177 180 180 178 174 173 171 171 170 165 163 159 157 168 207 212 211 238 264 282 285 282 284 286
275 261 289 16 210 185 208 241 247 313 217 243 281 250 245 202 210 207 182 167 166 169 166 165 163 160 162 161 158 156 159 162 164 175 178 181 234 235 239 242 246 267 289 300
289 293 263 235 254 235 219 236 228 230 253 238 238 258 15 281 295 139 129 147 155 166 160 158 155 153 155 156 155 157 158 159 156 168 178 205 203 203 214 227 267 288 290 300
314 299 324 330 49 183 222 214 234 243 248 252 249 255 355 143 114 132 127 141 154 153 150 151 153 152 153 152 153 155 157 155 156 163 165 155 144 143 161 223 273 289 300 307
333 257 221 233 232 213 255 239 269 262 231 250 225 291 306 289 153 136 136 145 145 147 149 150 148 146 143 140 140 140 141 140 145 149 144 132 127 148 194 288 305 310 313 315
145 261 226 263 258 256 264 259 243 239 263 249 251 221 257 196 279 162 148 148 145 141 142 141 140 139 138 137 137 138 136 133 129 129 120 108 97 45 336 326 321 322 321 319
291 276 290 287 262 221 254 246 236 238 237 249 262 281 148 146 160 158 147 147 148 149 149 147 144 141 138 136 134 133 130 128 117 107 92 75 42 6 337 324 322 318 314 316
235 277 333 264 337 334 287 244 209 210 204 190 214 224 161 151 165 179 162 159 159 158 154 151 146 143 138 133 126 124 115 105 101 85 67 36 357 333 321 317 316 316 312 311
225 295 266 277 336 270 246 196 179 227 251 225 229 206 191 178 164 174 172 164 161 159 155 153 150 144 136 126 122 116 112 106 99 84 28 342 330 325 321 316 311 306 302 299
222 213 262 269 227 290 290 168 155 271 294 226 217 205 153 138 136 167 181 177 168 162 155 150 148 145 136 130 127 127 121 122 110 359 323 321 319 316 311 305 301 299 298 303
173 241 239 30 255 249 245 195 178 225 256 328 199 159 141 145 156 189 186 175 165 161 157 152 145 142 136 133 135 136 128 127 318 315 316 310 303 298 297 299 307 313 317 317
181 218 227 224 265 282 259 280 176 323 324 326 169 164 154 166 186 171 167 163 166 163 160 158 155 153 155 159 169 180 210 254 270 276 289 303 315 324 329 328 325 323 324 323
178 166 198 92 186 270 182 331 270 291 327 219 155 157 145 127 145 153 158 163 167 168 166 167 171 174 183 200 223 237 243 255 269 290 313 326 330 331 331 331 332 330 328 327
256 202 197 186 221 271 296 268 307 327 296 137 153 143 136 133 148 154 159 165 169 175 177 181 188 204 221 235 244 250 253 259 278 304 317 324 330 332 334 336 335 332 333 332
250 202 221 70 257 249 273 277 272 302 313 167 158 143 126 129 148 161 166 171 178 184 193 204 218 233 245 255 261 264 265 270 281 290 307 320 326 332 333 334 335 337 335 335
210 152 202 263 276 273 275 266 250 249 243 177 172 175 167 155 156 165 173 185 193 201 212 228 242 252 260 262 265 259 254 253 260 282 294 300 311 320 323 328 330 330 331 330
184 197 201 219 224 202 210 224 211 211 202 177 179 179 179 182 179 178 187 195 208 224 237 246 257 264 269 270 268 260 252 253 261 269 281 294 304 309 314 318 319 320 324 330
Wind_Speed_850mb
10 1 11 13 16 13 14 11 16 11 9 8 32 28 35 33 40 33 56 48 41 43 45 52 58 55 52 55 57 60 57 53 49 50 50 48 45 40 40 37 35 35 37 35
8 8 14 12 18 18 28 32 17 18 11 9 8 25 30 30 40 54 60 66 63 61 58 49 55 59 58 55 61 63 65 61 54 51 46 46 41 40 39 39 39 39 37 36
9 11 27 9 17 23 22 28 23 15 18 12 7 19 20 20 43 48 75 67 76 70 68 62 61 62 61 60 58 68 68 67 60 54 47 46 44 47 46 45 42 37 37 36
9 19 17 21 17 9 25 9 20 23 10 8 3 18 34 38 32 36 52 65 61 60 51 46 50 46 58 64 56 61 68 66 57 57 56 52 47 50 47 45 48 47 47 47
13 6 5 15 16 14 16 10 12 23 29 11 11 11 12 18 43 49 42 60 77 71 58 54 38 31 39 61 61 56 60 68 62 57 57 53 50 50 48 46 46 45 48 47
19 3 7 4 4 7 11 12 20 6 16 20 37 17 12 16 35 24 36 65 82 89 75 62 48 35 29 52 63 60 55 58 64 65 61 59 55 50 49 45 43 40 35 36
7 15 13 13 10 13 14 12 8 12 13 25 33 14 45 7 7 10 28 52 77 89 90 74 66 55 38 40 57 62 56 53 55 57 53 54 52 43 40 40 39 39 41 45
5 14 17 16 35 10 19 15 11 16 15 32 11 23 23 12 22 11 8 23 36 59 63 58 52 50 41 36 45 50 55 51 47 45 43 39 32 32 35 33 33 34 35 37
6 13 5 8 10 27 10 19 29 18 5 4 12 50 16 3 4 2 7 7 28 43 56 60 58 56 49 40 39 43 42 33 25 21 17 15 17 23 26 30 34 36 39 42
7 10 10 7 12 22 22 6 13 11 12 9 11 35 29 9 11 6 6 8 23 41 58 58 58 56 55 54 51 48 43 37 32 16 18 28 27 19 17 19 20 23 24 25
12 9 6 7 10 16 13 22 15 7 15 10 3 10 7 21 15 19 14 21 34 44 51 54 53 52 51 50 50 51 48 45 40 40 35 25 18 19 16 17 15 15 18 19
5 8 8 19 11 6 16 13 18 15 12 19 11 18 4 11 9 16 21 32 37 51 54 51 51 54 51 48 44 39 35 33 30 28 23 20 18 15 14 12 10 10 14 16
7 8 8 18 2 4 9 13 24 27 22 37 13 16 14 2 13 27 31 37 45 52 56 52 47 45 44 42 42 38 35 32 25 27 27 26 20 13 7 4 7 11 15 19
3 7 11 13 13 4 8 9 5 15 23 34 24 15 12 15 18 26 38 43 51 58 60 58 54 50 49 48 46 44 43 38 36 30 25 18 14 6 3 5 10 13 17 19
8 11 7 19 28 27 31 29 15 13 18 9 6 37 26 10 15 23 55 59 56 54 55 55 56 53 49 47 45 42 39 34 28 19 15 10 7 2 5 8 12 16 19 22
4 9 5 16 18 23 25 20 23 25 24 19 22 23 10 18 15 22 45 60 61 60 55 54 53 48 45 42 39 35 31 26 20 15 11 8 6 7 9 14 17 20 23 26
6 6 7 10 14 15 15 25 21 8 12 11 17 31 21 13 26 39 52 63 66 62 59 54 48 45 41 37 32 27 23 19 13 10 7 6 6 9 13 17 21 25 30 33
8 3 3 9 8 4 11 6 8 20 30 31 29 18 37 41 47 48 57 65 61 58 54 48 44 39 34 31 25 19 17 12 8 5 3 6 11 16 20 25 29 33 37 41
21 6 7 3 5 15 15 10 9 5 19 21 46 29 30 47 45 25 52 53 56 53 49 44 37 30 27 23 19 15 12 8 3 3 7 11 16 21 26 32 36 39 40 40
8 4 6 4 1 9 7 4 7 5 11 8 10 33 33 52 20 15 52 46 47 42 37 33 28 22 18 15 12 9 6 2 2 7 12 17 21 24 26 28 30 34 38 41
5 4 17 10 8 18 17 14 2 8 9 20 21 44 57 28 11 55 55 50 45 40 34 28 24 20 16 12 8 5 4 5 9 12 14 16 20 23 27 30 33 36 39 41
14 13 8 4 2 16 3 7 4 6 19 3 24 32 40 35 52 64 54 52 47 41 36 29 23 19 15 11 9 9 11 12 12 14 16 21 24 27 28 31 35 38 41 44
6 13 7 17 12 11 10 10 18 18 12 6 36 34 38 44 58 54 53 47 40 33 30 26 21 17 17 18 19 19 17 15 14 16 19 21 22 25 28 31 34 38 43 49
10 14 7 4 13 21 46 43 36 17 13 11 30 27 27 37 42 44 43 40 36 33 30 27 27 28 28 28 27 25 22 18 17 17 17 18 19 22 27 33 39 43 48 52
14 16 11 10 27 33 47 40 25 15 5 10 25 24 21 23 38 39 39 39 39 36 33 32 32 33 32 32 32 31 27 23 19 16 17 19 21 25 31 35 40 46 51 55
26 16 20 15 31 16 9 20 33 29 22 21 28 28 26 24 30 40 39 35 32 31 32 34 33 36 36 36 34 35 32 28 22 22 24 26 28 32 36 40 42 46 49 51
Wind_Direction_850mb
2 9 223 260 227 252 279 306 317 335 272 239 230 232 239 234 228 220 203 208 214 225 237 231 227 230 232 230 228 228 228 228 230 232 234 234 237 241 244 250 257 258 259 261
7 270 242 284 290 237 248 260 281 285 252 242 265 249 242 226 229 227 227 225 228 238 240 234 223 224 230 233 230 228 229 232 230 233 236 242 249 253 257 257 258 258 261 265
205 252 349 300 270 260 249 248 249 261 332 268 358 265 239 237 231 233 236 237 235 228 231 226 218 223 228 230 231 229 228 230 232 234 235 238 246 251 254 255 262 267 270 273
245 262 244 261 265 279 264 257 235 232 269 251 166 269 220 224 229 222 221 228 226 215 213 208 208 220 228 226 228 230 230 232 232 234 236 237 241 250 265 272 276 277 279 281
246 274 253 244 239 218 258 277 295 218 228 329 256 263 245 188 228 225 215 218 227 219 213 209 208 217 223 219 222 226 226 230 230 230 236 240 244 251 260 267 269 274 277 276
246 257 254 231 307 267 251 317 278 290 228 239 228 221 211 199 226 219 210 214 220 226 223 221 222 222 229 220 218 219 220 223 229 234 233 235 240 247 254 263 269 277 281 279
310 235 220 189 256 248 200 172 208 225 196 228 192 210 242 277 287 227 215 208 218 224 227 225 227 226 227 222 217 216 215 217 221 225 230 230 235 239 251 260 267 275 280 281
217 314 170 192 206 198 205 194 239 191 202 245 91 225 235 253 212 241 232 218 219 219 216 208 205 204 208 210 208 209 212 216 220 222 221 221 222 240 252 260 268 272 276 277
204 265 264 223 172 191 195 232 248 278 279 314 184 238 310 118 28 11 344 224 203 199 194 192 193 189 185 192 193 195 193 188 187 187 194 212 240 256 260 269 273 274 273 274
275 284 238 216 184 216 224 238 217 207 230 240 227 230 230 183 199 235 234 163 177 180 180 178 174 173 171 171 170 165 163 159 157 168 207 212 211 238 264 282 285 282 284 286
275 261 289 16 210 185 208 241 247 313 217 243 281 250 245 202 210 207 182 167 166 169 166 165 163 160 162 161 158 156 159 162 164 175 178 181 234 235 239 242 246 267 289 300
289 293 263 235 254 235 219 236 228 230 253 238 238 258 15 281 295 139 129 147 155 166 160 158 155 153 155 156 155 157 158 159 156 168 178 205 203 203 214 227 267 288 290 300
314 299 324 330 49 183 222 214 234 243 248 252 249 255 355 143 114 132 127 141 154 153 150 151 153 152 153 152 153 155 157 155 156 163 165 155 144 143 161 223 273 289 300 307
333 257 221 233 232 213 255 239 269 262 231 250 225 291 306 289 153 136 136 145 145 147 149 150 148 146 143 140 140 140 141 140 145 149 144 132 127 148 194 288 305 310 313 315
145 261 226 263 258 256 264 259 243 239 263 249 251 221 257 196 279 162 148 148 145 141 142 141 140 139 138 137 137 138 136 133 129 129 120 108 97 45 336 326 321 322 321 319
291 276 290 287 262 221 254 246 236 238 237 249 262 281 148 146 160 158 147 147 148 149 149 147 144 141 138 136 134 133 130 128 117 107 92 75 42 6 337 324 322 318 314 316
235 277 333 264 337 334 287 244 209 210 204 190 214 224 161 151 165 179 162 159 159 158 154 151 146 143 138 133 126 124 115 105 101 85 67 36 357 333 321 317 316 316 312 311
225 295 266 277 336 270 246 196 179 227 251 225 229 206 191 178 164 174 172 164 161 159 155 153 150 144 136 126 122 116 112 106 99 84 28 342 330 325 321 316 311 306 302 299
222 213 262 269 227 290 290 168 155 271 294 226 217 205 153 138 136 167 181 177 168 162 155 150 148 145 136 130 127 127 121 122 110 359 323 321 319 316 311 305 301 299 298 303
173 241 239 30 255 249 245 195 178 225 256 328 199 159 141 145 156 189 186 175 165 161 157 152 145 142 136 133 135 136 128 127 318 315 316 310 303 298 297 299 307 313 317 317
181 218 227 224 265 282 259 280 176 323 324 326 169 164 154 166 186 171 167 163 166 163 160 158 155 153 155 159 169 180 210 254 270 276 289 303 315 324 329 328 325 323 324 323
178 166 198 92 186 270 182 331 270 291 327 219 155 157 145 127 145 153 158 163 167 168 166 167 171 174 183 200 223 237 243 255 269 290 313 326 330 331 331 331 332 330 328 327
256 202 197 186 221 271 296 268 307 327 296 137 153 143 136 133 148 154 159 165 169 175 177 181 188 204 221 235 244 250 253 259 278 304 317 324 330 332 334 336 335 332 333 332
250 202 221 70 257 249 273 277 272 302 313 167 158 143 126 129 148 161 166 171 178 184 193 204 218 233 245 255 261 264 265 270 281 290 307 320 326 332 333 334 335 337 335 335
210 152 202 263 276 273 275 266 250 249 243 177 172 175 167 155 156 165 173 185 193 201 212 228 242 252 260 262 265 259 254 253 260 282 294 300 311 320 323 328 330 330 331 330
184 197 201 219 224 202 210 224 211 211 202 177 179 179 179 182 179 178 187 195 208 224 237 246 257 264 269 270 268 260 252 253 261 269 281 294 304 309 314 318 319 320 324 330